Regional Weather Roundup
Issued by NWS

Home | Current Version | Previous Version | Text Only | Print | Product List | Glossary On
Versions: 1 2 3 4 5 6 7 8 9 10 11 12 13 14 15 16 17 18 19 20 21 22 23 24 25 26 27 28 29 30 31 32 33 34 35 36 37 38 39 40 41 42 43 44 45 46 47 48 49 50
000
ASUS45 KBOU 221210
RWRCO

WEATHER ROUNDUP FOR COLORADO
NATIONAL WEATHER SERVICE DENVER/BOULDER CO
500 AM MST THU FEB 22 2018

NOTE: "FAIR" INDICATES FEW OR NO CLOUDS BELOW 12000 FEET WITH NO
SIGNIFICANT WEATHER AND/OR OBSTRUCTIONS TO VISIBILITY.

COZ001>005-013-030-031-221300-
...NORTHWEST COLORADO...

CITY           SKY/WX    TMP DP  RH WIND       PRES   REMARKS
CRAIG          LGT SNOW  13   8  81 E3        29.96F
HAYDEN         FLURRIES  12   8  84 E9        29.95F WCI   0
MEEKER         LGT SNOW  18  14  84 CALM      29.93F FOG
RANGELY        LGT SNOW  18  15  88 CALM      30.00S
RABBIT EARS PA CLOUDY     9   5  85 S6        29.81F WCI  -1
STEAMBOAT SPGS FAIR       7   5  90 CALM      29.94S
WALDEN         MOCLDY     3  -2  78 SE3       29.90S
$$

COZ006>008-011-221300-
...WEST CENTRAL VALLEYS...

CITY           SKY/WX    TMP DP  RH WIND       PRES   REMARKS
GRAND JUNCTION LGT SNOW  27  27 100 E3        29.98S FOG
MONTROSE       LGT SNOW  24  23  96 CALM      29.98S FOG
EAGLE          LGT SNOW  18  15  88 S3        29.96F FOG
RIFLE          CLOUDY    22  22 100 CALM      29.96F
DELTA          LGT SNOW  28  26  92 CALM      29.99S
NUCLA          CLOUDY    27  25  93 CALM      30.00R
$$

COZ017>023-064>068-221300-
...SOUTHWEST COLORADO...

CITY           SKY/WX    TMP DP  RH WIND       PRES   REMARKS
DURANGO        LGT SNOW  26  26 100 W9        29.94R VSB 3/4 WCI  17
CORTEZ         CLOUDY    24  23  96 CALM      29.97R
PAGOSA SPRINGS LGT SNOW  26  26  98 SE6       29.92F WCI  20
TELLURIDE      LGT SNOW  19  18  96 CALM      29.89S
WOLF CREEK PAS CLOUDY    10  10 100 S14G22    29.87F WCI  -5
$$

COZ009-010-012-014-032>034-037-058>063-221300-
...CENTRAL COLORADO...

CITY           SKY/WX    TMP DP  RH WIND       PRES   REMARKS
ASPEN          LGT SNOW  16  13  88 CALM      29.88F FOG
BUENA VISTA    LGT SNOW  18  15  88 CALM      29.89S
COPPER MTN     LGT SNOW  14   9  79 S9        29.79F WCI   2
BERTHOUD PASS  CLOUDY     7  -4  61 SW8       29.79F WCI  -6
COTTONWOOD PAS LGT SNOW  21  18  86 CALM      29.84S
GUNNISON       LGT SNOW  18  16  92 CALM      29.91R FOG
GRANBY         CLOUDY     5   0  79 CALM      29.91S
KREMMLING      MOCLDY    14   7  73 CALM      29.94F
LEADVILLE      CLOUDY    10   8  92 NE5       29.81S FOG     WCI   2
MONARCH PASS   SNOW      12   9  85 SW14      29.91F VSB 1/2 WCI  -3
SALIDA         CLOUDY    19  16  90 CALM      29.98S
SUNLIGHT       LGT SNOW   9   5  85 SW5       29.86S WCI   0
WILKERSON PASS CLOUDY    14  10  85 S6        29.84F FOG     WCI   5
$$

COZ069>075-221300-
...SAN LUIS VALLEY/SANGRE DE CRISTO MOUNTAINS...

CITY           SKY/WX    TMP DP  RH WIND       PRES   REMARKS
ALAMOSA        CLOUDY    25  23  92 S10       29.89F WCI  15
DEL NORTE      CLOUDY    20  19  93 CALM      29.89S
LA VETA PASS   LGT SNOW  21  19  93 S14G32    29.97F WCI   8
SAGUACHE       NOT AVBL
$$

COZ035-036-038>040-221300-
...NORTHERN COLORADO FRONT RANGE...

CITY           SKY/WX    TMP DP  RH WIND       PRES   REMARKS
DENVER INTL AP CLOUDY    14   8  77 W6        29.98F HAZE    WCI   5
AURORA         CLOUDY    12   8  82 S3        29.97F
FRONT RANGE AP FAIR      16  10  79 SW5       29.98F WCI   9
ERIE MUNI ARPT MOCLDY     8   5  89 CALM      30.07F
BOULDER MUN AP CLOUDY    12  10  92 CALM      30.00S
CENTENNIAL     MOCLDY    13  10  88 CALM      29.95F
BROOMFIELD     NOT AVBL
FORT COLLINS   FAIR       7   3  84 CALM      30.02F
LONGMONT       FAIR       7   3  84 W3        30.04S
$$

COZ041-046-047-076>085-087-088-221300-
...PIKES PEAK/PALMER DIVIDE AND SOUTHERN FOOTHILLS...

CITY           SKY/WX    TMP DP  RH WIND       PRES   REMARKS
COLO. SPRINGS  LGT SNOW  14  12  92 S7        29.99R FOG     WCI   4
A. F. ACADEMY  CLOUDY    11   9  88 CALM      29.95S
SCHRIEVER AFB  NOT AVBL
CHEYENNE MTN   FLURRIES  10   8  92 CALM      29.88S
ELLICOTT       CLOUDY   N/A N/A N/A VRB3      29.97S
FALCON         FLURRIES  13  11  92 S5        29.95S WCI   5
FORT CARSON    CLOUDY    14  12  92 S3        29.98F
LIMON          CLOUDY    13   8  81 S12       30.02F WCI  -1
MONUMENT HILL  FAIR       7   3  85 SW7       29.92F WCI  -5
CANON CITY     FLURRIES  19  16  86 CALM      30.01F
WALSENBURG     NOT AVBL
TRINIDAD       FAIR      14  10  84 NW5       29.98F WCI   6
$$

COZ042>045-048>051-090-091-221300-
...NORTHEAST COLORADO...

CITY           SKY/WX    TMP DP  RH WIND       PRES   REMARKS
GREELEY ARPT   FAIR       3   0  87 NE5       30.05S WCI  -6
AKRON          CLOUDY    15   8  73 SE15      30.05F WCI   0
BURLINGTON     CLOUDY    15   6  67 SE8       30.12F WCI   4
WRAY           CLOUDY    21  10  63 SE8       30.17R WCI  12
YUMA           CLOUDY    18   7  62 SE12      30.11S WCI   5
STERLING       CLOUDY    21  14  73 SE12      30.08S WCI   9
HOLYOKE        CLOUDY    21  10  63 SE12      30.14F WCI   9
FORT MORGAN    FAIR      15  13  90 CALM      30.06S
$$

COZ086-089-092>099-221300-
...SOUTHEAST COLORADO...

CITY           SKY/WX    TMP DP  RH WIND       PRES   REMARKS
PUEBLO         CLOUDY    20  15  81 CALM      30.05F
LA JUNTA       FAIR      14  11  87 NW5       30.07F WCI   6
LAMAR          MOCLDY    15   4  61 E6        30.11S WCI   6
SPRINGFIELD      N/A     15   9  76 S16       30.11R WCI  -1
$$



USA.gov is the U.S. government's official web portal to all federal, state and local government web resources and services.